Volver al catálogo

THORAD DELTA 1 DEB

ActivoSSO
NORAD 9984·DEBRIS·🇺🇸 United States

Lanzado Nov 15, 1974 desde Vandenberg Space Force Base

Loading…

Próximos Pases (próximas 24 horas)

TLE

ActualizadoSource: Space-Track

Época: Sep 14, 2026, 19:21 UTC

1 09984U 74089EB  26257.80669464 -.00000046  00000-0  43441-5 0  9995
2 09984 102.3436 256.4891 0095149 348.5637 188.0914 12.40461268348415

Sigue THORAD DELTA 1 DEB en tiempo real con AllMySat

Download on the App Store